Content
SEND FEEDBACK

Daily
Averages
Monthly
Summary
France

OISSEL, FRANCE


Home > Europe > France
Elevation: 515 feet     Latitude: 49 22N     Longitude: 001 10E

WEATHER
 
SELECT A DAY
Number of Records: 178,936;   Date Range: 7/1/96 - 9/30/14
 
SHARE

PRINT THIS DATA

[ ← Previous Day ]
WEATHER ALMANAC - FEBRUARY 20, 2013
[ Next Day → ]
[ °C ]   °F
Weather ElementAverageHighLow
Temperature35.5 °F42.8 °F (1:00 pm)30.2 °F (3:30 am)
Dewpoint30.7 °F35.6 °F (10:00 am)24.8 °F (10:00 pm)
Humidity83.5 %100 % (5:30 am)61 % (3:30 pm)
Barometer30.10 in30.16 in (1:00 pm)30.04 in (1:30 am)
Wind Speed10.5 mph16.1 mph (2:00 pm)
Weather ElementAverage
Visibility3.6 mi
Wind DirectionENE (60.2 °)

Weather ElementTotal
Precipitation---
Heating Degree Days28.5 (Base 65)
Averaged from 49 records on February 20, 2013
WEATHER CONDITIONS BREAKOUT
WIND DIRECTION BREAKOUT
WEATHER BY HOUR - FEBRUARY 20, 2013
[ °C ]   °F
Local TimeTemperatureDewpointHumidityBarometerVisibilityWind DirectionWind SpeedGust SpeedPrecipitationEventsConditions
12:30 AM33.8 °F30.2 °F87 %30.06 inNE (50°)5.8 mphMist
1:30 AM33.8 °F30.2 °F87 %30.04 inNE (50°)6.9 mphMist
2:00 AM32.0 °F30.2 °F93 %30.04 in1.9 miENE (60°)5.8 mphMist
2:30 AM32.0 °F30.2 °F93 %30.06 in1.7 miENE (70°)5.8 mphMist
3:00 AM32.0 °F30.2 °F93 %30.06 in1.5 miENE (70°)6.9 mphMist
3:30 AM30.2 °F28.4 °F93 %30.06 in1.3 miENE (70°)6.9 mphMist
4:00 AM32.0 °F30.2 °F93 %30.06 in1.2 miENE (60°)5.8 mphMist
4:30 AM32.0 °F30.2 °F93 %30.06 in1.0 miNE (50°)8.1 mphMist
5:00 AM32.0 °F30.2 °F93 %30.06 in0.2 miNE (40°)8.1 mphFogFog
5:30 AM32.0 °F32.0 °F100 %30.06 in0.1 miNE (40°)5.8 mphFogFog
6:00 AM32.0 °F32.0 °F100 %30.06 in0.0 miNE (40°)6.9 mphFogFog
6:30 AM32.0 °F32.0 °F100 %30.06 in0.0 miNE (40°)5.8 mphFogFog
7:00 AM32.0 °F32.0 °F100 %30.06 in0.1 miNE (40°)9.2 mphFogFog
7:00 AM32.0 °F31.0 °F97 %30.12 in0.0 miNE (40°)9.2 mphFogHeavy Fog
7:30 AM32.0 °F32.0 °F100 %30.09 in0.1 miNE (40°)8.1 mphFogFog
8:00 AM32.0 °F32.0 °F100 %30.09 in0.1 miNE (40°)8.1 mphFogFog
8:30 AM32.0 °F32.0 °F100 %30.09 in0.1 miNE (40°)6.9 mphFogFog
9:00 AM33.8 °F33.8 °F100 %30.12 in0.5 miNE (40°)8.1 mphFogFog
9:30 AM35.6 °F33.8 °F93 %30.12 in0.9 miNE (50°)9.2 mphOvercast
10:00 AM35.6 °F35.6 °F100 %30.12 in1.1 miENE (60°)10.4 mphOvercast
10:30 AM37.4 °F35.6 °F93 %30.12 in1.4 miENE (70°)10.4 mphOvercast
11:00 AM37.4 °F35.6 °F93 %30.12 inEast (80°)10.4 mphMist
11:30 AM39.2 °F35.6 °F87 %30.12 inEast (80°)12.7 mphMist
12:00 PM41.0 °F35.6 °F81 %30.12 in3.1 miEast (80°)11.5 mphMist
12:30 PM41.0 °F35.6 °F81 %30.12 in4.3 miEast (80°)12.7 mph
1:00 PM42.0 °F34.0 °F66 %30.16 in4.0 miENE (70°)11.5 mphPartly Cloudy
1:00 PM42.8 °F33.8 °F70 %30.12 in4.3 miENE (70°)11.5 mph
1:30 PM42.8 °F33.8 °F70 %30.12 in5.0 miEast (80°)15.0 mph
2:00 PM42.8 °F32.0 °F66 %30.12 in6.2 miEast (80°)16.1 mph
2:30 PM42.8 °F32.0 °F66 %30.12 in6.2 miEast (100°)15.0 mph
3:00 PM42.8 °F32.0 °F66 %30.09 in6.2 miEast (80°)13.8 mph
3:30 PM42.8 °F30.2 °F61 %30.09 in6.2 miENE (60°)13.8 mph
4:00 PM42.8 °F30.2 °F61 %30.12 in6.2 miENE (60°)12.7 mph
4:30 PM41.0 °F30.2 °F65 %30.12 in6.2 miENE (60°)15.0 mph
5:00 PM41.0 °F30.2 °F65 %30.09 in6.2 miENE (60°)13.8 mphPartly Cloudy
5:30 PM37.4 °F30.2 °F75 %30.09 in6.2 miNE (50°)15.0 mphScattered Clouds
6:00 PM37.4 °F30.2 °F75 %30.12 in6.2 miNE (50°)13.8 mphPartly Cloudy
6:30 PM35.6 °F30.2 °F81 %30.12 in5.0 miNE (50°)11.5 mphPartly Cloudy
7:00 PM36.0 °F29.0 °F67 %30.16 in6.0 miENE (60°)11.5 mphClear
7:00 PM35.6 °F28.4 °F75 %30.12 in5.6 miNE (50°)11.5 mphMostly Cloudy
7:30 PM33.8 °F28.4 °F81 %30.12 in5.6 miENE (60°)10.4 mph
8:00 PM33.8 °F26.6 °F75 %30.12 in6.2 miENE (60°)11.5 mph
8:30 PM32.0 °F26.6 °F80 %30.12 in6.2 miENE (60°)11.5 mph
9:00 PM32.0 °F26.6 °F80 %30.12 in6.2 miENE (60°)12.7 mph
9:30 PM32.0 °F26.6 °F80 %30.15 in6.2 miENE (70°)12.7 mph
10:00 PM32.0 °F24.8 °F75 %30.15 in6.2 miENE (70°)13.8 mph
10:30 PM30.2 °F24.8 °F80 %30.15 in6.2 miENE (70°)13.8 mph
11:00 PM30.2 °F24.8 °F80 %30.15 in6.2 miENE (70°)11.5 mph
11:30 PM30.2 °F24.8 °F80 %30.15 in6.2 miENE (70°)10.4 mph
Hourly data recorded from LFOP, located miles away from Oissel, France







STORIES FROM OUR PARTNERS